Regional Weather Roundup
Issued by NWS

Home | Current Version | Previous Version | Graphics & Text | Print | Product List | Glossary On
Versions: 1 2 3 4 5 6 7 8 9 10 11 12 13 14 15 16 17 18 19 20 21 22 23 24 25 26 27 28 29 30 31 32 33 34 35 36 37 38 39 40 41 42 43 44 45 46 47 48 49 50
000
ASUS43 KMKX 292221
RWRWI

WISCONSIN REGIONAL WEATHER ROUNDUP
NATIONAL WEATHER SERVICE MILWAUKEE/SULLIVAN WI
500 PM CDT WED JUL 29 2015

NOTE: "FAIR" INDICATES FEW OR NO CLOUDS BELOW 12,000 FEET WITH NO
SIGNIFICANT WEATHER AND/OR OBSTRUCTIONS TO VISIBILITY.

WIZ001-002-006>008-014>016-023>028-292300-
NORTHWEST WISCONSIN

CITY           SKY/WX    TMP DP  RH WIND       PRES   REMARKS
SUPERIOR ARPT  CLOUDY    76  56  50 W15       29.79S
ASHLAND        CLOUDY    76  58  53 W13G21    29.79F
HAYWARD        MOSUNNY   79  53  40 W13G25    29.85F
SIREN          MOSUNNY   79  52  39 W16G25    29.87F
CUMBERLAND     MOSUNNY   75  50  41 W20G26    29.90S
RICE LAKE      PTSUNNY   77  54  45 W16       29.91S
CHETEK         MOSUNNY  N/A N/A N/A MISG      29.90S
LADYSMITH      PTSUNNY   79  53  39 W18G26    29.90F
EAU CLAIRE     SUNNY     81  54  39 W21G33    29.90F HX  81
MENOMONIE      MOSUNNY   81  53  37 W18G24    29.91S HX  80
NEW RICHMOND   MOSUNNY   79  51  37 W25G33    29.92S
OSCEOLA        MOSUNNY   80  53  39 W20G31    29.94S HX  80
$$

WIZ003>005-009-010-017-018-292300-
NORTH CENTRAL WISCONSIN

CITY           SKY/WX    TMP DP  RH WIND       PRES   REMARKS
MANITOWISH WTR CLOUDY    73  55  54 W20       29.85F
ARBOR VITAE    PTSUNNY   74  55  49 W16G29    29.86S
WOODRUFF       PTSUNNY   74  55  49 W16G29    29.86S
RHINELANDER    CLOUDY    76  54  46 W13G25    29.88S
EAGLE RIVER    CLOUDY    74  51  43 W21G31    29.85S
LAND O LAKES   CLOUDY    73  53  48 W16G26    29.86S
PHILLIPS       PTSUNNY   76  54  45 W9G24     29.87S
TOMAHAWK       PTSUNNY   75  53  45 W20G28    29.89S
MEDFORD        PTSUNNY   76  53  44 W16G30    29.90F
MERRILL        NOT AVBL
$$

WIZ029-030-035-036-043>047-292300-
CENTRAL WISCONSIN

CITY           SKY/WX    TMP DP  RH WIND       PRES   REMARKS
WAUSAU         MOSUNNY   82  52  35 W21G32    29.87S HX  81
MOSINEE        MOSUNNY   79  52  38 W25G32    29.91R
MARSHFIELD     SUNNY     81  51  35 W17G29    29.91S HX  80
STEVENS POINT  SUNNY     79  52  38 W15G33    29.90S
WAUPACA        SUNNY     85  48  27 W17G28    29.88S HX  83
WAUTOMA        SUNNY     86  50  28 W20G29    29.90S HX  84
WISC RAPIDS    SUNNY     83  48  29 W23G31    29.92S HX  81
CAMP DOUGLAS   MOSUNNY   81  54  39 W22G32    29.93S HX  80
$$

WIZ011>013-019>022-031-037>040-048>050-292300-
NORTHEAST WISCONSIN

CITY           SKY/WX    TMP DP  RH WIND       PRES   REMARKS
ANTIGO         CLOUDY    76  54  46 W20G32    29.88S
SHAWANO        MOSUNNY   84  51  32 W16G28    29.85R HX  82
OCONTO         MOSUNNY   85  53  33 W18G31    29.81S HX  83
STURGEON BAY   SUNNY     82  54  36 W21G29    29.84R HX  81
GREEN BAY      SUNNY     84  52  33 W18G31    29.84F HX  82
MANITOWOC      SUNNY     84  49  29 MISG      29.85F HX  82
APPLETON       MOSUNNY   82  45  26 W22G31    29.88S HX  80
CLINTONVILLE   MOSUNNY   82  46  28 W18G26    29.86R HX  81
OSHKOSH        SUNNY     84  51  31 W9G25     29.87F HX  82
$$

WIZ032>034-041-042-053>061-292300-
SOUTHWEST WISCONSIN

CITY           SKY/WX    TMP DP  RH WIND       PRES   REMARKS
LA CROSSE      SUNNY     84  54  35 W17G25    29.95R HX  83
SPARTA         SUNNY     82  48  29 W17G28    29.95S HX  81
VIROQUA        SUNNY     80  52  37 W14G25    29.99S HX  80
BOSCOBEL       SUNNY     86  53  32 W12G22    29.98F HX  84
PRAIRIE DU CHI SUNNY     84  47  27 W13G24    29.99S HX  82
PLATTEVILLE    SUNNY     82  54  38 W15G24    30.01F HX  81
$$

WIZ056-057-062-063-064-067-068-292300-
SOUTH CENTRAL WISCONSIN

CITY           SKY/WX    TMP DP  RH WIND       PRES   REMARKS
REEDSBURG      SUNNY     83  52  33 W21G29    29.94F HX  82
BARABOO/DELLS  SUNNY     84  46  26 W17G25    29.94F HX  82
LONE ROCK      SUNNY     84  51  31 W17G28    29.97S HX  82
MINERAL POINT  SUNNY     82  46  28 W15G30    30.00F HX  81
MADISON        MOSUNNY   83  53  35 W9G21     29.94F HX  82
MIDDLETON      SUNNY     85  45  24 W20G26    29.96F HX  82
WATERTOWN      SUNNY     82  54  37 W13G24    29.93F HX  81
MONROE         SUNNY     82  52  34 W18G25    29.99F HX  81
JANESVILLE     MOSUNNY   84  50  30 W14G22    29.96F HX  82
$$

WIZ051-052-058>065-066-070>072-292300-
SOUTHEAST WISCONSIN

CITY           SKY/WX    TMP DP  RH WIND       PRES   REMARKS
MILWAUKEE      MOSUNNY   86  49  27 W20G28    29.91F HX  83
WAUKESHA       SUNNY     82  50  32 W16G24    29.95F HX  81
MILWAUKEE/TIMM SUNNY     84  43  23 W18       29.92F HX  82
RACINE         SUNNY     85  50  29 W10G29    29.94F HX  83
BURLINGTON     SUNNY     82  50  33 W13G23    29.95F HX  80
KENOSHA        SUNNY     83  53  35 W15G29    29.94F HX  82
FOND DU LAC    SUNNY     84  51  31 W21G29    29.89F HX  82
SHEBOYGAN      SUNNY     84  51  31 W18G30    29.88F HX  82
WEST BEND      SUNNY     82  45  26 W18G28    29.91S HX  80
JUNEAU         SUNNY     81  52  37 W16G22    29.93F HX  80
$$

LSZ147-162-292300-
LAKE SUPERIOR

STATION/POSITION TIME  TEMP    WIND        PRES    WAVE
                       AIR SEA DIR/SP/G            HT/PER
                 (UTC) (F)     (DEG/KT/KT) (MB)    (FT/S)
W MID LAKE BUOY  2150   63 55  230/ 17/ 19 1006.6R   5/ 6
DEVILS ISLAND    2200   69     250/ 22/ 25 1007.4R
PORT WING        2100   74     230/ 11/ 17 1008.8
SAXON HARBOR     2140   76                 1008.8S
$$

LMZ867-665-643>646-292300-
LAKE MICHIGAN

STATION/POSITION TIME  TEMP    WIND        PRES    WAVE
                       AIR SEA DIR/SP/G            HT/PER
                 (UTC) (F)     (DEG/KT/KT) (MB)    (FT/S)
CHAMBERS ISLAND  2100   81     220/  7/ 17 1008.5F
S GREEN BAY BUOY 2100   73 69  240/ 16/ 17 1011.2
N MID LAKE BUOY  2150   75 70  220/ 16/ 17 1008.0S   3/ 5
NORTHPORT PIER   2100   83     250/  8/ 16 1008.5S
SISTER BAY       2144   81     240/ 14/ 16   N/A
ALGOMA LAKESHORE 2112          270/ 14/ 18   N/A
KEWAUNEE LAKESHO 2100   83                 1009.9
SHEBOYGAN LAKESH 2200   83     260/ 20/ 25 1011.3F
PORT WASHINGTON  2111   87     260/ 10/ 25 1012.5F
ATWATER BUOY     2200   79     250/ 21/ 25 1014.0F
MILWAUKEE LAKESH 2200   83     290/ 17/ 23   N/A
KENOSHA   LAKESH 2200   84     270/ 17/ 23 1013.2F
$$

TC  - TEMPERATURE IN CELSIUS
VSB - VISIBILITY IN STATUTE MILES
WCI - WIND CHILL INDEX
HX  - HEAT INDEX



USA.gov is the U.S. government's official web portal to all federal, state and local government web resources and services.